����,���ϕ���(m/s),���ϕ���,�ő�u�ԕ���(m/s),�ő啗��������,�C��(��),���x(%),10���Ԉړ��ώZ�J��(mm),1���Ԉړ��ώZ�J��(mm),���J��(mm),�݌v�J��(mm),����(���ώZ)(MJ/m2),����(���ώZ)(min),���n�C��(hPa),�C�ʋC��(hPa)
2022-07-11T00:00:00+09:00,1,�k��,1.6,�k��,27,86.5,0,0,0.5,4.5,13.12,250,995.2,1008.4
2022-07-11T00:01:00+09:00,0.9,�k��,1.6,�k��,26.9,86.4,0,0,0,4.5,0,0,995.2,1008.4
2022-07-11T00:02:00+09:00,0.9,�k��,1.6,�k��,26.8,86.8,0,0,0,4.5,0,0,995.2,1008.4
2022-07-11T00:03:00+09:00,0.9,�k��,1.6,�k��,26.6,87.3,0,0,0,4.5,0,0,995.2,1008.4
2022-07-11T00:04:00+09:00,0.8,�k��,1.6,�k��,26.6,88.1,0,0,0,4.5,0,0,995.2,1008.4
2022-07-11T00:05:00+09:00,0.8,�k��,1.6,�k��,26.7,88.8,0,0,0,4.5,0,0,995.2,1008.4
2022-07-11T00:06:00+09:00,0.7,�k�k��,1.2,�k��,26.7,88.7,0,0,0,4.5,0,0,995.2,1008.4
2022-07-11T00:07:00+09:00,0.7,�k�k��,1.2,�k��,26.7,88.6,0,0,0,4.5,0,0,995.3,1008.5
2022-07-11T00:08:00+09:00,0.6,�k�k��,1.2,�k��,26.7,88.3,0,0,0,4.5,0,0,995.3,1008.5
2022-07-11T00:09:00+09:00,0.6,�k�k��,1.2,�k��,26.7,88,0,0,0,4.5,0,0,995.3,1008.5
2022-07-11T00:10:00+09:00,0.5,�k�k��,1.2,�k��,26.6,88,0,0,0,4.5,0,0,995.3,1008.5
2022-07-11T00:11:00+09:00,0.5,�k�k��,1.2,�k��,26.5,88.2,0,0,0,4.5,0,0,995.3,1008.5
2022-07-11T00:12:00+09:00,0.5,�k�k��,1.2,�k��,26.6,88.6,0,0,0,4.5,0,0,995.3,1008.5
2022-07-11T00:13:00+09:00,0.4,�k��,1,�k�k��,26.6,88.9,0,0,0,4.5,0,0,995.3,1008.5
2022-07-11T00:14:00+09:00,0.4,�k��,1,�k�k��,26.7,88.6,0,0,0,4.5,0,0,995.3,1008.5
2022-07-11T00:15:00+09:00,0.4,�k��,1,�k�k��,26.7,88.2,0,0,0,4.5,0,0,995.3,1008.5
2022-07-11T00:16:00+09:00,0.4,�k��,1,�k�k��,26.8,88.1,0,0,0,4.5,0,0,995.3,1008.5
2022-07-11T00:17:00+09:00,0.4,���k��,1,��,26.7,87.7,0,0,0,4.5,0,0,995.3,1008.5
2022-07-11T00:18:00+09:00,0.3,���k��,1,��,26.5,87.5,0,0,0,4.5,0,0,995.3,1008.5
2022-07-11T00:19:00+09:00,0.3,���k��,1,��,26.5,88,0,0,0,4.5,0,0,995.3,1008.5
2022-07-11T00:20:00+09:00,0.3,���k��,1,��,26.4,88.4,0,0,0,4.5,0,0,995.3,1008.5
2022-07-11T00:21:00+09:00,0.3,���k��,1,��,26.4,88.7,0,0,0,4.5,0,0,995.3,1008.5
2022-07-11T00:22:00+09:00,0.3,��,1,��,26.5,88.9,0,0,0,4.5,0,0,995.3,1008.5
2022-07-11T00:23:00+09:00,0.3,��,1,��,26.6,89,0,0,0,4.5,0,0,995.3,1008.5
2022-07-11T00:24:00+09:00,0.3,��,1,�k��,26.6,88.8,0,0,0,4.5,0,0,995.3,1008.5
2022-07-11T00:25:00+09:00,0.3,��,1,�k��,26.7,88.6,0,0,0,4.5,0,0,995.2,1008.4
2022-07-11T00:26:00+09:00,0.3,��,1.4,��,26.7,88.2,0,0,0,4.5,0,0,995.2,1008.4
2022-07-11T00:27:00+09:00,0.4,��,1.4,��,26.7,88.1,0,0,0,4.5,0,0,995.2,1008.4
2022-07-11T00:28:00+09:00,0.5,��,1.4,��,26.7,88,0,0,0,4.5,0,0,995.2,1008.4
2022-07-11T00:29:00+09:00,0.6,��,1.4,��,26.6,87.8,0,0,0,4.5,0,0,995.2,1008.4
2022-07-11T00:30:00+09:00,0.6,��,1.4,��,26.6,87.9,0,0,0,4.5,0,0,995.2,1008.4
2022-07-11T00:31:00+09:00,0.7,��,1.4,��,26.6,88.2,0,0,0,4.5,0,0,995.2,1008.4
2022-07-11T00:32:00+09:00,0.7,���k��,1.4,��,26.6,88.3,0,0,0,4.5,0,0,995.2,1008.4
2022-07-11T00:33:00+09:00,0.7,���k��,1.4,��,26.7,88.2,0,0,0,4.5,0,0,995.1,1008.3
2022-07-11T00:34:00+09:00,0.7,���k��,1.4,��,26.7,88.1,0,0,0,4.5,0,0,995.1,1008.3
2022-07-11T00:35:00+09:00,0.6,���k��,1.4,��,26.5,87.6,0,0,0,4.5,0,0,995.1,1008.3
2022-07-11T00:36:00+09:00,0.6,���k��,1.4,���k��,26.5,87.8,0,0,0,4.5,0,0,995.1,1008.3
2022-07-11T00:37:00+09:00,0.5,���k��,1.1,��,26.4,88.2,0,0,0,4.5,0,0,995.1,1008.3
2022-07-11T00:38:00+09:00,0.4,�k��,1.1,��,26.4,88.5,0,0,0,4.5,0,0,995.1,1008.3
2022-07-11T00:39:00+09:00,0.3,�k��,1.1,��,26.4,88.9,0,0,0,4.5,0,0,995.1,1008.3
2022-07-11T00:40:00+09:00,0.3,�k��,1.1,��,26.4,89.3,0,0,0,4.5,0,0,995.1,1008.3
2022-07-11T00:41:00+09:00,0.2,�É�,1,���k��,26.4,89.2,0,0,0,4.5,0,0,995.1,1008.3
2022-07-11T00:42:00+09:00,0.2,�É�,0.6,�k�k��,26.4,89.3,0,0,0,4.5,0,0,995.1,1008.3
2022-07-11T00:43:00+09:00,0.2,�É�,0.7,�k,26.4,89.4,0,0,0,4.5,0,0,995.1,1008.3
2022-07-11T00:44:00+09:00,0.2,�É�,0.7,�k,26.5,89.4,0,0,0,4.5,0,0,995,1008.2
2022-07-11T00:45:00+09:00,0.2,�É�,0.7,�k,26.6,89.1,0,0,0,4.5,0,0,995,1008.2
2022-07-11T00:46:00+09:00,0.3,�k,0.7,�k,26.6,88.6,0,0,0,4.5,0,0,995,1008.2
2022-07-11T00:47:00+09:00,0.3,�k�k��,0.7,�k,26.5,88.4,0,0,0,4.5,0,0,995,1008.2
2022-07-11T00:48:00+09:00,0.3,�k�k��,0.7,�k,26.6,88.3,0,0,0,4.5,0,0,995,1008.2
2022-07-11T00:49:00+09:00,0.3,�k,0.7,�k,26.6,88.2,0,0,0,4.5,0,0,995,1008.2
2022-07-11T00:50:00+09:00,0.3,�k,0.7,�k,26.5,88.1,0,0,0,4.5,0,0,995,1008.2
2022-07-11T00:51:00+09:00,0.4,�k,0.7,�k,26.6,88.1,0,0,0,4.5,0,0,994.9,1008.1
2022-07-11T00:52:00+09:00,0.3,�k,0.7,�k,26.6,87.9,0,0,0,4.5,0,0,994.9,1008.1
2022-07-11T00:53:00+09:00,0.3,�k,0.6,�k��,26.4,87.9,0,0,0,4.5,0,0,994.9,1008.1
2022-07-11T00:54:00+09:00,0.3,�k,0.6,�k��,26.5,88.2,0,0,0,4.5,0,0,994.9,1008.1
2022-07-11T00:55:00+09:00,0.3,�k�k��,0.6,�k��,26.5,88.3,0,0,0,4.5,0,0,994.9,1008.1
2022-07-11T00:56:00+09:00,0.3,�k�k��,0.9,�k��,26.5,88.3,0,0,0,4.5,0,0,994.9,1008.1
2022-07-11T00:57:00+09:00,0.4,�k�k��,0.9,�k��,26.4,88.4,0,0,0,4.5,0,0,994.9,1008.1
2022-07-11T00:58:00+09:00,0.4,�k��,0.9,�k��,26.4,88.5,0,0,0,4.5,0,0,994.9,1008.1
2022-07-11T00:59:00+09:00,0.4,�k��,1,���쐼,26.3,88.7,0,0,0,4.5,0,0,994.9,1008.1
2022-07-11T01:00:00+09:00,0.4,���k��,1,���쐼,26.1,89.2,0,0,0,4.5,0,0,994.9,1008.1
2022-07-11T01:01:00+09:00,0.4,���k��,1,���쐼,25.9,90.2,0,0,0,4.5,0,0,994.9,1008.1
2022-07-11T01:02:00+09:00,0.4,���k��,1,���쐼,25.9,91.4,0,0,0,4.5,0,0,994.9,1008.1
2022-07-11T01:03:00+09:00,0.4,��,1,���쐼,25.7,92,0,0,0,4.5,0,0,994.9,1008.2
2022-07-11T01:04:00+09:00,,,,,,,,,,,,,,
2022-07-11T01:05:00+09:00,0.5,��,1,���쐼,25.8,93.3,0,0,0,4.5,0,0,994.9,1008.1
2022-07-11T01:06:00+09:00,0.5,��,1,���쐼,25.7,93.5,0,0,0,4.5,0,0,994.9,1008.2
2022-07-11T01:07:00+09:00,0.5,��,1,���쐼,25.7,94,0,0,0,4.5,0,0,994.9,1008.2
2022-07-11T01:08:00+09:00,0.5,��,1,���쐼,25.7,94.2,0,0,0,4.5,0,0,994.9,1008.2
2022-07-11T01:09:00+09:00,0.5,��,0.9,��,25.6,94.3,0,0,0,4.5,0,0,994.9,1008.2
2022-07-11T01:10:00+09:00,0.5,��,0.9,��,25.6,94.7,0,0,0,4.5,0,0,994.9,1008.2
2022-07-11T01:11:00+09:00,0.5,��,1,���쐼,25.6,95,0,0,0,4.5,0,0,994.9,1008.2
2022-07-11T01:12:00+09:00,0.6,��,1,���쐼,25.5,94.9,0,0,0,4.5,0,0,994.9,1008.2
2022-07-11T01:13:00+09:00,0.6,��,1,���쐼,25.5,95.2,0,0,0,4.5,0,0,994.9,1008.2
2022-07-11T01:14:00+09:00,0.7,��,1,���쐼,25.5,95.2,0,0,0,4.5,0,0,994.9,1008.2
2022-07-11T01:15:00+09:00,0.7,��,1,���쐼,25.4,95.4,0,0,0,4.5,0,0,994.9,1008.2
2022-07-11T01:16:00+09:00,0.6,��,1,���쐼,25.5,95.6,0,0,0,4.5,0,0,994.8,1008.1
2022-07-11T01:17:00+09:00,0.6,��,1,���쐼,25.5,95.6,0,0,0,4.5,0,0,994.8,1008.1
2022-07-11T01:18:00+09:00,0.6,��,1,���쐼,25.5,95.7,0,0,0,4.5,0,0,994.8,1008.1
2022-07-11T01:19:00+09:00,0.5,��,1,���쐼,25.5,95.8,0,0,0,4.5,0,0,994.8,1008.1
2022-07-11T01:20:00+09:00,0.5,��,1,���쐼,25.4,95.6,0,0,0,4.5,0,0,994.8,1008.1
2022-07-11T01:21:00+09:00,0.4,��,0.9,��,25.2,95.4,0,0,0,4.5,0,0,994.8,1008.1
2022-07-11T01:22:00+09:00,0.3,���k��,0.8,��,25.2,95.4,0,0,0,4.5,0,0,994.8,1008.1
2022-07-11T01:23:00+09:00,0.3,���k��,0.8,��,25.1,95.7,0,0,0,4.5,0,0,994.8,1008.1
2022-07-11T01:24:00+09:00,0.3,�k��,0.8,��,25.2,95.9,0,0,0,4.5,0,0,994.9,1008.2
2022-07-11T01:25:00+09:00,0.2,�É�,0.7,��,25.3,96.3,0,0,0,4.5,0,0,994.9,1008.2
2022-07-11T01:26:00+09:00,0.2,�É�,0.7,��,25.2,96.3,0,0,0,4.5,0,0,994.8,1008.1
2022-07-11T01:27:00+09:00,0.2,�É�,0.5,�k,25.2,96.3,0,0,0,4.5,0,0,994.8,1008.1
2022-07-11T01:28:00+09:00,0.2,�É�,0.7,�k�k��,25.3,96.4,0,0,0,4.5,0,0,994.8,1008.1
2022-07-11T01:29:00+09:00,0.2,�É�,0.7,�k�k��,25.3,96.4,0,0,0,4.5,0,0,994.8,1008.1
2022-07-11T01:30:00+09:00,0.3,�k�k��,0.7,�k�k��,25.4,96.6,0,0,0,4.5,0,0,994.8,1008.1
2022-07-11T01:31:00+09:00,0.3,�k�k��,0.7,�k�k��,25.4,96.4,0,0,0,4.5,0,0,994.8,1008.1
2022-07-11T01:32:00+09:00,0.4,�k�k��,0.9,�k�k��,25.4,96.3,0,0,0,4.5,0,0,994.8,1008.1
2022-07-11T01:33:00+09:00,0.4,�k�k��,0.9,�k�k��,25.4,96.2,0,0,0,4.5,0,0,994.8,1008.1
2022-07-11T01:34:00+09:00,0.4,�k,0.9,�k�k��,25.3,95.9,0,0,0,4.5,0,0,994.8,1008.1
2022-07-11T01:35:00+09:00,0.4,�k,0.9,�k�k��,25.3,95.9,0,0,0,4.5,0,0,994.8,1008.1
2022-07-11T01:36:00+09:00,0.4,�k,0.9,�k�k��,25.3,95.8,0,0,0,4.5,0,0,994.8,1008.1
2022-07-11T01:37:00+09:00,0.4,�k�k��,0.9,�k�k��,25.2,95.8,0,0,0,4.5,0,0,994.8,1008.1
2022-07-11T01:38:00+09:00,0.4,�k�k��,0.9,�k�k��,25.1,95.7,0,0,0,4.5,0,0,994.8,1008.1
2022-07-11T01:39:00+09:00,0.3,�k��,0.9,�k�k��,25.2,95.9,0,0,0,4.5,0,0,994.7,1008
2022-07-11T01:40:00+09:00,0.3,�k��,0.9,�k�k��,25.3,96,0,0,0,4.5,0,0,994.8,1008.1
2022-07-11T01:41:00+09:00,0.3,�k��,0.9,�k�k��,25.2,96,0,0,0,4.5,0,0,994.7,1008
2022-07-11T01:42:00+09:00,0.2,�É�,0.7,�k��,25.2,96,0,0,0,4.5,0,0,994.7,1008
2022-07-11T01:43:00+09:00,0.2,�É�,0.7,�k��,25.2,96.1,0,0,0,4.5,0,0,994.7,1008
2022-07-11T01:44:00+09:00,0.2,�É�,0.7,�k��,25.1,96,0,0,0,4.5,0,0,994.7,1008
2022-07-11T01:45:00+09:00,0.2,�É�,0.7,�k��,25.2,96.2,0,0,0,4.5,0,0,994.7,1008
2022-07-11T01:46:00+09:00,0.1,�É�,0.7,�k��,25.3,96.2,0,0,0,4.5,0,0,994.7,1008
2022-07-11T01:47:00+09:00,0.1,�É�,0.7,�k��,25.3,96.3,0,0,0,4.5,0,0,994.7,1008
2022-07-11T01:48:00+09:00,0.1,�É�,0.4,�k��,25.3,96.3,0,0,0,4.5,0,0,994.7,1008
2022-07-11T01:49:00+09:00,0.1,�É�,0.4,�k��,25.2,96.1,0,0,0,4.5,0,0,994.7,1008
2022-07-11T01:50:00+09:00,0.1,�É�,0.4,�k��,25.2,96.1,0,0,0,4.5,0,0,994.7,1008
2022-07-11T01:51:00+09:00,0,�É�,0.4,�k��,25.2,96.1,0,0,0,4.5,0,0,994.7,1008
2022-07-11T01:52:00+09:00,0.1,�É�,0.4,�k��,25.1,96,0,0,0,4.5,0,0,994.7,1008
2022-07-11T01:53:00+09:00,0,�É�,0.3,�k�k��,25.2,96.1,0,0,0,4.5,0,0,994.7,1008
2022-07-11T01:54:00+09:00,0,�É�,0.3,�k�k��,25.1,96.2,0,0,0,4.5,0,0,994.7,1008
2022-07-11T01:55:00+09:00,0,�É�,0.3,�k�k��,25.1,96.1,0,0,0,4.5,0,0,994.8,1008.1
2022-07-11T01:56:00+09:00,0,�É�,0.3,�k�k��,24.9,96,0,0,0,4.5,0,0,994.8,1008.1
2022-07-11T01:57:00+09:00,0,�É�,0.3,�k�k��,24.9,96,0,0,0,4.5,0,0,994.8,1008.1
2022-07-11T01:58:00+09:00,0,�É�,0.3,�k�k��,25,96.3,0,0,0,4.5,0,0,994.8,1008.1
2022-07-11T01:59:00+09:00,0,�É�,0.3,�k�k��,24.9,96.5,0,0,0,4.5,0,0,994.8,1008.1
2022-07-11T02:00:00+09:00,0,�É�,0.3,�k�k��,24.9,96.4,0,0,0,4.5,0,0,994.8,1008.1
2022-07-11T02:01:00+09:00,0,�É�,0.3,�k�k��,25,96.7,0,0,0,4.5,0,0,994.8,1008.1
2022-07-11T02:02:00+09:00,0,�É�,0.3,�k�k��,25,96.9,0,0,0,4.5,0,0,994.8,1008.1
2022-07-11T02:03:00+09:00,0,�É�,0.3,��쓌,25,96.9,0,0,0,4.5,0,0,994.8,1008.1
2022-07-11T02:04:00+09:00,0,�É�,0.3,��쓌,25.1,97,0,0,0,4.5,0,0,994.8,1008.1
2022-07-11T02:05:00+09:00,0,�É�,0.4,�k�k��,25.1,97,0,0,0,4.5,0,0,994.8,1008.1
2022-07-11T02:06:00+09:00,0,�É�,0.4,�k�k��,25.1,97,0,0,0,4.5,0,0,994.8,1008.1
2022-07-11T02:07:00+09:00,0,�É�,0.4,�k�k��,25,96.7,0,0,0,4.5,0,0,994.7,1008
2022-07-11T02:08:00+09:00,0.1,�É�,0.4,�k�k��,25,96.7,0,0,0,4.5,0,0,994.7,1008
2022-07-11T02:09:00+09:00,0.1,�É�,0.4,�k�k��,25,96.8,0,0,0,4.5,0,0,994.7,1008
2022-07-11T02:10:00+09:00,0.1,�É�,0.4,�k�k��,25.1,96.8,0,0,0,4.5,0,0,994.7,1008
2022-07-11T02:11:00+09:00,0.1,�É�,0.4,�k�k��,25,96.8,0,0,0,4.5,0,0,994.7,1008
2022-07-11T02:12:00+09:00,0.1,�É�,0.4,�k�k��,25,96.7,0,0,0,4.5,0,0,994.6,1007.9
2022-07-11T02:13:00+09:00,0.1,�É�,0.4,�k�k��,25.1,96.8,0,0,0,4.5,0,0,994.6,1007.9
2022-07-11T02:14:00+09:00,0.1,�É�,0.8,��쓌,25,96.8,0,0,0,4.5,0,0,994.7,1008
2022-07-11T02:15:00+09:00,0.1,�É�,0.8,��쓌,25,96.7,0,0,0,4.5,0,0,994.7,1008
2022-07-11T02:16:00+09:00,0.1,�É�,0.8,��쓌,25,96.7,0,0,0,4.5,0,0,994.7,1008
2022-07-11T02:17:00+09:00,0.1,�É�,0.8,��쓌,25.1,96.9,0,0,0,4.5,0,0,994.7,1008
2022-07-11T02:18:00+09:00,0.1,�É�,0.9,��쐼,25,96.9,0,0,0,4.5,0,0,994.7,1008
2022-07-11T02:19:00+09:00,0.2,�É�,1,��쓌,24.9,96.7,0,0,0,4.5,0,0,994.7,1008
2022-07-11T02:20:00+09:00,0.3,��쓌,1,��쓌,25,96.8,0,0,0,4.5,0,0,994.7,1008
2022-07-11T02:21:00+09:00,0.3,��,1,��쓌,25.1,97.1,0,0,0,4.5,0,0,994.7,1008
2022-07-11T02:22:00+09:00,0.3,��,1,��쓌,25,97.1,0,0,0,4.5,0,0,994.7,1008
2022-07-11T02:23:00+09:00,0.3,��,1,��쓌,25,97.1,0,0,0,4.5,0,0,994.6,1007.9
2022-07-11T02:24:00+09:00,0.3,��쐼,1,��쓌,25,97.1,0,0,0,4.5,0,0,994.6,1007.9
2022-07-11T02:25:00+09:00,0.3,��쐼,1,��쓌,25,97.2,0,0,0,4.5,0,0,994.6,1007.9
2022-07-11T02:26:00+09:00,0.3,��쐼,1,��쓌,25,97.3,0,0,0,4.5,0,0,994.6,1007.9
2022-07-11T02:27:00+09:00,0.3,��쐼,1,��쓌,25,97.2,0,0,0,4.5,0,0,994.6,1007.9
2022-07-11T02:28:00+09:00,0.3,��쐼,1,��쓌,24.9,97.1,0,0,0,4.5,0,0,994.6,1007.9
2022-07-11T02:29:00+09:00,0.2,�É�,1,�쐼,24.8,97,0,0,0,4.5,0,0,994.6,1007.9
2022-07-11T02:30:00+09:00,0.1,�É�,0.9,���쐼,24.8,97,0,0,0,4.5,0,0,994.6,1007.9
2022-07-11T02:31:00+09:00,0.1,�É�,0.6,���쐼,24.8,97,0,0,0,4.5,0,0,994.6,1007.9
2022-07-11T02:32:00+09:00,0.1,�É�,0.6,���쐼,24.9,97.2,0,0,0,4.5,0,0,994.7,1008
2022-07-11T02:33:00+09:00,0.1,�É�,0.6,���쐼,24.9,97.3,0,0,0,4.5,0,0,994.7,1008
2022-07-11T02:34:00+09:00,0.1,�É�,0.5,���k��,24.9,97.3,0,0,0,4.5,0,0,994.7,1008
2022-07-11T02:35:00+09:00,0.1,�É�,0.5,���k��,25,97.4,0,0,0,4.5,0,0,994.7,1008
2022-07-11T02:36:00+09:00,0.1,�É�,0.5,���k��,25.1,97.5,0,0,0,4.5,0,0,994.7,1008
2022-07-11T02:37:00+09:00,0.1,�É�,0.6,��쓌,25,97.4,0,0,0,4.5,0,0,994.7,1008
2022-07-11T02:38:00+09:00,0.1,�É�,0.7,���쓌,25.1,97.5,0,0,0,4.5,0,0,994.7,1008
2022-07-11T02:39:00+09:00,0.1,�É�,0.7,���쓌,25.1,97.3,0,0,0,4.5,0,0,994.7,1008
2022-07-11T02:40:00+09:00,0.2,�É�,0.7,���쓌,25,97.1,0,0,0,4.5,0,0,994.7,1008
2022-07-11T02:41:00+09:00,0.2,�É�,0.7,���쓌,24.9,97,0,0,0,4.5,0,0,994.7,1008
2022-07-11T02:42:00+09:00,0.2,�É�,0.7,���쓌,25.1,97.1,0,0,0,4.5,0,0,994.7,1008
2022-07-11T02:43:00+09:00,0.2,�É�,0.8,��,25,97.1,0,0,0,4.5,0,0,994.7,1008
2022-07-11T02:44:00+09:00,0.3,��쓌,1.2,��,24.9,96.9,0,0,0,4.5,0,0,994.7,1008
2022-07-11T02:45:00+09:00,0.4,��쓌,1.2,��,24.9,97,0,0,0,4.5,0,0,994.7,1008
2022-07-11T02:46:00+09:00,0.4,��,1.5,��쐼,24.8,97,0,0,0,4.5,0,0,994.7,1008
2022-07-11T02:47:00+09:00,0.5,��,1.5,��쐼,24.9,97.3,0,0,0,0,0,0,994.7,1008
2022-07-11T02:48:00+09:00,0.4,��,1.5,��쐼,24.8,97.3,0,0,0,0,0,0,994.7,1008
2022-07-11T02:49:00+09:00,0.5,��쐼,1.5,��쐼,24.8,97.3,0,0,0,0,0,0,994.7,1008
2022-07-11T02:50:00+09:00,0.5,��쐼,1.5,��쐼,24.8,97.5,0,0,0,0,0,0,994.7,1008
2022-07-11T02:51:00+09:00,0.6,��쐼,1.5,��쐼,24.8,97.6,0,0,0,0,0,0,994.6,1007.9
2022-07-11T02:52:00+09:00,0.6,��쐼,1.5,��쐼,24.9,97.7,0,0,0,0,0,0,994.6,1007.9
2022-07-11T02:53:00+09:00,0.6,��쐼,1.5,��쐼,24.8,97.8,0,0,0,0,0,0,994.6,1007.9
2022-07-11T02:54:00+09:00,0.5,�쐼,1.5,��쐼,24.8,97.8,0,0,0,0,0,0,994.6,1007.9
2022-07-11T02:55:00+09:00,0.5,�쐼,1.5,��쐼,24.8,97.8,0,0,0,0,0,0,994.6,1007.9
2022-07-11T02:56:00+09:00,0.4,�쐼,1.2,�쐼,24.9,97.8,0,0,0,0,0,0,994.6,1007.9
2022-07-11T02:57:00+09:00,0.4,�쐼,1.2,�쐼,25,97.9,0,0,0,0,0,0,994.6,1007.9
2022-07-11T02:58:00+09:00,0.4,�쐼,1.2,�쐼,25,97.9,0,0,0,0,0,0,994.6,1007.9
2022-07-11T02:59:00+09:00,0.4,�쐼,1.2,�쐼,24.9,97.8,0,0,0,0,0,0,994.6,1007.9
2022-07-11T03:00:00+09:00,0.4,�쐼,1.2,�쐼,25,97.8,0,0,0,0,0,0,994.6,1007.9
2022-07-11T03:01:00+09:00,0.3,�쐼,1,���쐼,24.8,97.7,0,0,0,0,0,0,994.6,1007.9
2022-07-11T03:02:00+09:00,0.3,�쐼,0.9,��쐼,24.8,97.6,0,0,0,0,0,0,994.6,1007.9
2022-07-11T03:03:00+09:00,0.3,�쐼,0.9,��쐼,24.6,97.5,0,0,0,0,0,0,994.6,1007.9
2022-07-11T03:04:00+09:00,0.3,��쐼,0.9,��쐼,24.6,97.5,0,0,0,0,0,0,994.6,1007.9
2022-07-11T03:05:00+09:00,0.3,��쐼,0.9,��쐼,24.6,97.6,0,0,0,0,0,0,994.6,1007.9
2022-07-11T03:06:00+09:00,0.4,��쐼,1.6,��쐼,24.7,97.7,0,0,0,0,0,0,994.6,1007.9
2022-07-11T03:07:00+09:00,0.3,��쐼,1.6,��쐼,24.8,97.8,0,0,0,0,0,0,994.6,1007.9
2022-07-11T03:08:00+09:00,0.4,��쐼,1.6,��쐼,24.8,97.8,0,0,0,0,0,0,994.6,1007.9
2022-07-11T03:09:00+09:00,0.5,�쐼,1.9,�쐼,24.7,97.8,0,0,0,0,0,0,994.6,1007.9
2022-07-11T03:10:00+09:00,0.6,��쐼,2,��쐼,24.7,97.8,0,0,0,0,0,0,994.6,1007.9
2022-07-11T03:11:00+09:00,0.7,��쐼,2,��쐼,24.7,97.8,0,0,0,0,0,0,994.6,1007.9
2022-07-11T03:12:00+09:00,0.8,��쐼,2,��쐼,24.7,97.9,0,0,0,0,0,0,994.6,1007.9
2022-07-11T03:13:00+09:00,0.9,��쐼,2,��쐼,24.7,97.9,0,0,0,0,0,0,994.6,1007.9
2022-07-11T03:14:00+09:00,0.9,��쐼,2,��쐼,24.7,97.9,0,0,0,0,0,0,994.6,1007.9
2022-07-11T03:15:00+09:00,0.9,�쐼,2,��쐼,24.7,97.9,0,0,0,0,0,0,994.6,1007.9
2022-07-11T03:16:00+09:00,0.9,�쐼,2,��쐼,24.7,97.9,0,0,0,0,0,0,994.6,1007.9
2022-07-11T03:17:00+09:00,0.9,�쐼,2,��쐼,24.7,97.9,0,0,0,0,0,0,994.6,1007.9
2022-07-11T03:18:00+09:00,0.9,�쐼,2,��쐼,24.7,97.8,0,0,0,0,0,0,994.6,1007.9
2022-07-11T03:19:00+09:00,0.9,�쐼,2,��쐼,24.6,97.8,0,0,0,0,0,0,994.6,1007.9
2022-07-11T03:20:00+09:00,0.9,�쐼,2.2,�쐼,24.6,97.8,0,0,0,0,0,0,994.6,1007.9
2022-07-11T03:21:00+09:00,0.8,�쐼,2.2,�쐼,24.6,97.8,0,0,0,0,0,0,994.6,1007.9
2022-07-11T03:22:00+09:00,0.8,�쐼,2.2,�쐼,24.7,97.9,0,0,0,0,0,0,994.6,1007.9
2022-07-11T03:23:00+09:00,0.8,�쐼,2.2,�쐼,24.6,97.9,0,0,0,0,0,0,994.5,1007.8
2022-07-11T03:24:00+09:00,0.9,�쐼,2.2,�쐼,24.6,97.9,0,0,0,0,0,0,994.5,1007.8
2022-07-11T03:25:00+09:00,0.8,�쐼,2.2,�쐼,24.6,97.9,0,0,0,0,0,0,994.5,1007.8
2022-07-11T03:26:00+09:00,0.9,�쐼,2.2,�쐼,24.7,97.9,0,0,0,0,0,0,994.5,1007.8
2022-07-11T03:27:00+09:00,0.8,�쐼,2.2,�쐼,24.7,97.9,0,0,0,0,0,0,994.6,1007.9
2022-07-11T03:28:00+09:00,0.8,�쐼,2.2,�쐼,24.6,97.9,0,0,0,0,0,0,994.6,1007.9
2022-07-11T03:29:00+09:00,0.7,�쐼,2.2,�쐼,24.6,97.8,0,0,0,0,0,0,994.6,1007.9
2022-07-11T03:30:00+09:00,0.7,�쐼,1.7,��쓌,24.6,97.8,0,0,0,0,0,0,994.6,1007.9
2022-07-11T03:31:00+09:00,0.6,�쐼,1.2,��쐼,24.6,97.9,0,0,0,0,0,0,994.6,1007.9
2022-07-11T03:32:00+09:00,0.6,�쐼,1.2,��쐼,24.7,97.9,0,0,0,0,0,0,994.6,1007.9
2022-07-11T03:33:00+09:00,0.6,�쐼,1.2,��쐼,24.9,98,0,0,0,0,0,0,994.6,1007.9
2022-07-11T03:34:00+09:00,0.6,�쐼,1.2,��쐼,24.8,98,0,0,0,0,0,0,994.6,1007.9
2022-07-11T03:35:00+09:00,0.6,�쐼,1.2,��쐼,24.7,97.8,0,0,0,0,0,0,994.7,1008
2022-07-11T03:36:00+09:00,0.6,�쐼,1.2,��쐼,24.7,97.8,0,0,0,0,0,0,994.7,1008
2022-07-11T03:37:00+09:00,0.5,�쐼,1.2,��쐼,24.6,97.7,0,0,0,0,0,0,994.7,1008
2022-07-11T03:38:00+09:00,0.5,�쐼,1.2,��쐼,24.6,97.7,0,0,0,0,0,0,994.7,1008
2022-07-11T03:39:00+09:00,0.5,�쐼,1.2,��쐼,24.6,97.7,0,0,0,0,0,0,994.7,1008
2022-07-11T03:40:00+09:00,0.5,�쐼,1.2,��쐼,24.6,97.8,0,0,0,0,0,0,994.7,1008
2022-07-11T03:41:00+09:00,0.5,�쐼,1.2,��,24.7,97.8,0,0,0,0,0,0,994.7,1008
2022-07-11T03:42:00+09:00,0.5,�쐼,1.2,��,24.7,97.9,0,0,0,0,0,0,994.6,1007.9
2022-07-11T03:43:00+09:00,0.5,�쐼,1.2,��,24.9,97.9,0,0,0,0,0,0,994.6,1007.9
2022-07-11T03:44:00+09:00,0.5,�쐼,1.2,��,24.8,97.9,0,0,0,0,0,0,994.6,1007.9
2022-07-11T03:45:00+09:00,0.6,�쐼,1.3,��쐼,24.7,97.8,0,0,0,0,0,0,994.6,1007.9
2022-07-11T03:46:00+09:00,0.6,�쐼,1.3,��쐼,24.8,97.8,0,0,0,0,0,0,994.6,1007.9
2022-07-11T03:47:00+09:00,0.7,�쐼,1.3,��쐼,24.8,97.8,0,0,0,0,0,0,994.6,1007.9
2022-07-11T03:48:00+09:00,0.7,�쐼,1.6,��쐼,24.7,97.7,0,0,0,0,0,0,994.6,1007.9
2022-07-11T03:49:00+09:00,0.9,�쐼,2.1,��쐼,24.7,97.6,0,0,0,0,0,0,994.6,1007.9
2022-07-11T03:50:00+09:00,0.9,��쐼,2.1,��쐼,24.7,97.7,0,0,0,0,0,0,994.6,1007.9
2022-07-11T03:51:00+09:00,1,��쐼,2.1,��쐼,24.8,97.7,0,0,0,0,0,0,994.6,1007.9
2022-07-11T03:52:00+09:00,1,��쐼,2.1,��쐼,24.9,97.8,0,0,0,0,0,0,994.6,1007.9
2022-07-11T03:53:00+09:00,1,��쐼,2.1,��쐼,24.8,97.8,0,0,0,0,0,0,994.7,1008
2022-07-11T03:54:00+09:00,1,��쐼,2.1,��쐼,24.8,97.8,0,0,0,0,0,0,994.7,1008
2022-07-11T03:55:00+09:00,1,��쐼,2.1,��쐼,24.7,97.7,0,0,0,0,0,0,994.7,1008
2022-07-11T03:56:00+09:00,1.1,��쐼,2.1,��쐼,24.7,97.7,0,0,0,0,0,0,994.7,1008
2022-07-11T03:57:00+09:00,1,��쐼,2.1,��쐼,24.7,97.8,0,0,0,0,0,0,994.7,1008
2022-07-11T03:58:00+09:00,1,��쐼,2.1,��쐼,24.7,97.8,0,0,0,0,0,0,994.7,1008
2022-07-11T03:59:00+09:00,0.9,��쐼,1.5,��쐼,24.7,97.7,0,0,0,0,0,0,994.7,1008
2022-07-11T04:00:00+09:00,0.9,��쐼,1.7,��,24.7,97.8,0,0,0,0,0,0,994.6,1007.9
2022-07-11T04:01:00+09:00,0.9,��쐼,1.7,��,24.7,97.8,0,0,0,0,0,0,994.7,1008
2022-07-11T04:02:00+09:00,0.8,��쐼,1.7,��,24.8,97.9,0,0,0,0,0,0,994.6,1007.9
2022-07-11T04:03:00+09:00,0.8,��쐼,1.9,��쐼,24.7,97.9,0,0,0,0,0,0,994.6,1007.9
2022-07-11T04:04:00+09:00,0.9,��쐼,2.1,��,24.6,97.8,0,0,0,0,0,0,994.6,1007.9
2022-07-11T04:05:00+09:00,0.8,��쐼,2.1,��,24.6,97.9,0,0,0,0,0,0,994.6,1007.9
2022-07-11T04:06:00+09:00,0.9,��쐼,2.1,��,24.6,97.9,0,0,0,0,0,0,994.7,1008
2022-07-11T04:07:00+09:00,1,��쐼,2.1,��,24.6,97.9,0,0,0,0,0,0,994.6,1007.9
2022-07-11T04:08:00+09:00,1,��쐼,2.1,��,24.6,97.9,0,0,0,0,0,0,994.6,1007.9
2022-07-11T04:09:00+09:00,1,��쐼,2.1,��,24.6,97.9,0,0,0,0,0,0,994.6,1007.9
2022-07-11T04:10:00+09:00,0.9,��쐼,2.1,��,24.7,98.1,0,0,0,0,0,0,994.6,1007.9
2022-07-11T04:11:00+09:00,0.9,��쐼,2.1,��,24.6,98,0,0,0,0,0,0,994.6,1007.9
2022-07-11T04:12:00+09:00,1,��쐼,2.1,��,24.6,97.9,0,0,0,0,0,0,994.6,1007.9
2022-07-11T04:13:00+09:00,1,��쐼,2.1,��,24.6,97.9,0,0,0,0,0,0,994.6,1007.9
2022-07-11T04:14:00+09:00,0.9,��쐼,2,��,24.6,98,0,0,0,0,0,0,994.6,1007.9
2022-07-11T04:15:00+09:00,1,��쐼,2,��,24.5,97.9,0,0,0,0,0,0,994.6,1007.9
2022-07-11T04:16:00+09:00,0.9,��쐼,1.8,��쐼,24.5,98,0,0,0,0,0,0,994.6,1007.9
2022-07-11T04:17:00+09:00,0.9,��쐼,1.7,��쐼,24.5,98,0,0,0,0,0,0,994.6,1007.9
2022-07-11T04:18:00+09:00,0.8,��쐼,1.7,��쐼,24.5,98,0,0,0,0,0,0,994.6,1007.9
2022-07-11T04:19:00+09:00,0.8,��쐼,1.7,��쐼,24.6,98,0,0,0,0,0,0,994.6,1007.9
2022-07-11T04:20:00+09:00,0.8,��쐼,1.7,��쐼,24.7,98,0,0,0,0,0,0,994.6,1007.9
2022-07-11T04:21:00+09:00,0.8,��쐼,1.7,��쐼,24.8,98.1,0,0,0,0,0,0,994.6,1007.9
2022-07-11T04:22:00+09:00,0.8,��쐼,1.8,��쐼,24.8,98.1,0,0,0,0,0,0,994.6,1007.9
2022-07-11T04:23:00+09:00,0.8,��쐼,1.8,��쐼,24.7,98,0,0,0,0,0,0,994.6,1007.9
2022-07-11T04:24:00+09:00,0.9,��쐼,1.8,��쐼,24.7,98,0,0,0,0,0,0,994.6,1007.9
2022-07-11T04:25:00+09:00,0.9,��쐼,1.8,��쐼,24.7,97.9,0,0,0,0,0,0,994.6,1007.9
2022-07-11T04:26:00+09:00,0.9,��쐼,1.8,��쐼,24.7,97.9,0,0,0,0,0,0,994.6,1007.9
2022-07-11T04:27:00+09:00,1,��쐼,1.8,��쐼,24.7,97.9,0,0,0,0,0,0,994.6,1007.9
2022-07-11T04:28:00+09:00,1,��쐼,1.8,��쐼,24.6,97.9,0,0,0,0,0,0,994.6,1007.9
2022-07-11T04:29:00+09:00,1.1,��쐼,1.8,��쐼,24.6,97.9,0,0,0,0,0,0,994.6,1007.9
2022-07-11T04:30:00+09:00,1.1,��쐼,1.8,��쐼,24.6,97.9,0,0,0,0,0,0,994.6,1007.9
2022-07-11T04:31:00+09:00,1.1,��,1.8,��쐼,24.5,97.9,0,0,0,0,0,0,994.6,1007.9
2022-07-11T04:32:00+09:00,1,��,1.6,��,24.5,97.9,0,0,0,0,0,0,994.6,1007.9
2022-07-11T04:33:00+09:00,1,��,1.7,��,24.5,97.9,0,0,0,0,0,0,994.6,1007.9
2022-07-11T04:34:00+09:00,0.9,��,1.7,��,24.5,97.9,0,0,0,0,0,0,994.6,1007.9
2022-07-11T04:35:00+09:00,0.9,��,1.7,��,24.6,98,0,0,0,0,0,0,994.6,1007.9
2022-07-11T04:36:00+09:00,0.8,��,1.7,��,24.6,98,0,0,0,0,0,0,994.6,1007.9
2022-07-11T04:37:00+09:00,0.8,��,1.9,��쐼,24.6,98,0,0,0,0,0,0,994.6,1007.9
2022-07-11T04:38:00+09:00,0.9,��,1.9,��쐼,24.5,98,0,0,0,0,0,0,994.6,1007.9
2022-07-11T04:39:00+09:00,0.9,��,1.9,��쐼,24.5,98,0,0,0,0,0,0,994.6,1007.9
2022-07-11T04:40:00+09:00,0.9,��,1.9,��쐼,24.5,98,0,0,0,0,0,0,994.6,1007.9
2022-07-11T04:41:00+09:00,0.9,��쐼,1.9,��쐼,24.5,98,0,0,0,0,0,0,994.7,1008
2022-07-11T04:42:00+09:00,0.9,��,1.9,��쐼,24.5,98,0,0,0,0,0,0,994.6,1007.9
2022-07-11T04:43:00+09:00,0.9,��,1.9,��쐼,24.5,98,0,0,0,0,0,0,994.7,1008
2022-07-11T04:44:00+09:00,1,��,2,��,24.5,98,0,0,0,0,0,0,994.7,1008
2022-07-11T04:45:00+09:00,1,��,2,��,24.5,98,0,0,0,0,0,0,994.7,1008
2022-07-11T04:46:00+09:00,0.9,��,2,��,24.5,98,0,0,0,0,0,0,994.7,1008
2022-07-11T04:47:00+09:00,0.9,��,2,��,24.5,98,0,0,0,0,0,0,994.7,1008
2022-07-11T04:48:00+09:00,0.9,��,2,��,24.5,98.1,0,0,0,0,0,0,994.7,1008
2022-07-11T04:49:00+09:00,0.8,��,2,��,24.5,98.1,0,0,0,0,0,0,994.8,1008.1
2022-07-11T04:50:00+09:00,0.8,��,2,��,24.5,98.1,0,0,0,0,0,0,994.7,1008
2022-07-11T04:51:00+09:00,0.8,��,2,��,24.6,98.1,0,0,0,0,0,0,994.8,1008.1
2022-07-11T04:52:00+09:00,0.8,��,2,��,24.5,98.1,0,0,0,0,0,0,994.8,1008.1
2022-07-11T04:53:00+09:00,0.7,��,2,��,24.5,98.1,0,0,0,0,0,0,994.8,1008.1
2022-07-11T04:54:00+09:00,0.7,��,1.6,��,24.5,98.1,0,0,0,0,0,0,994.8,1008.1
2022-07-11T04:55:00+09:00,0.7,��,1.6,��,24.5,98.1,0,0,0,0,0,0,994.8,1008.1
2022-07-11T04:56:00+09:00,0.7,��,1.6,��,24.6,98.1,0,0,0,0,0,0,994.8,1008.1
2022-07-11T04:57:00+09:00,0.8,��,1.6,��,24.6,98.1,0,0,0,0,0,0,994.8,1008.1
2022-07-11T04:58:00+09:00,0.8,��,1.7,��,24.5,98.1,0,0,0,0,0,0,994.8,1008.1
2022-07-11T04:59:00+09:00,0.8,��,1.7,��,24.5,98.1,0,0,0,0,0,0,994.8,1008.1
2022-07-11T05:00:00+09:00,0.9,��,2.1,��,24.5,98.1,0,0,0,0,0,0,994.9,1008.2
2022-07-11T05:01:00+09:00,0.9,��,2.1,��,24.5,98.1,0,0,0,0,0,0,994.9,1008.2
2022-07-11T05:02:00+09:00,0.9,��,2.1,��,24.6,98.1,0,0,0,0,0,0,994.9,1008.2
2022-07-11T05:03:00+09:00,1,��,2.1,��,24.6,98.1,0,0,0,0,0,0,994.9,1008.2
2022-07-11T05:04:00+09:00,1,��,2.1,��,24.6,98.1,0,0,0,0,0,0,994.9,1008.2
2022-07-11T05:05:00+09:00,1.1,��,2.1,��,24.6,98.1,0,0,0,0,0,0,994.9,1008.2
2022-07-11T05:06:00+09:00,1.1,��쐼,2.1,��,24.6,98,0,0,0,0,0,0,994.9,1008.2
2022-07-11T05:07:00+09:00,1.1,��쐼,2.1,��,24.6,98,0,0,0,0,0,0,994.9,1008.2
2022-07-11T05:08:00+09:00,1.2,��쐼,2.1,��,24.6,98,0,0,0,0,0,0,994.9,1008.2
2022-07-11T05:09:00+09:00,1.2,��쐼,2.1,��,24.6,97.9,0,0,0,0,0,0,995,1008.3
2022-07-11T05:10:00+09:00,1.2,��쐼,2.1,��,24.7,98,0,0,0,0,0.01,0,995,1008.3